Year,Month,Day,Hour,Minute,Value (Times are PST for windgust in km/hr)
2018,02,17,00,02,3.20
2018,02,17,00,03,1.60
2018,02,17,00,05,3.20
2018,02,17,00,06,3.20
2018,02,17,00,07,3.20
2018,02,17,00,08,3.20
2018,02,17,00,09,3.20
2018,02,17,00,10,1.60
2018,02,17,00,11,3.20
2018,02,17,00,12,3.20
2018,02,17,00,13,3.20
2018,02,17,00,14,3.20
2018,02,17,00,15,3.20
2018,02,17,00,16,3.20
2018,02,17,00,18,3.20
2018,02,17,00,19,4.80
2018,02,17,00,20,3.20
2018,02,17,00,21,4.80
2018,02,17,00,22,3.20
2018,02,17,00,23,4.80
2018,02,17,00,24,1.60
2018,02,17,00,25,4.80
2018,02,17,00,26,4.80
2018,02,17,00,27,4.80
2018,02,17,00,28,4.80
2018,02,17,00,29,4.80
2018,02,17,00,30,3.20
2018,02,17,00,31,4.80
2018,02,17,00,32,1.60
2018,02,17,00,33,1.60
2018,02,17,00,34,4.80
2018,02,17,00,35,3.20
2018,02,17,00,36,4.80
2018,02,17,00,37,4.80
2018,02,17,00,38,4.80
2018,02,17,00,39,3.20
2018,02,17,00,40,3.20
2018,02,17,00,41,4.80
2018,02,17,00,42,4.80
2018,02,17,00,43,6.40
2018,02,17,00,44,3.20
2018,02,17,00,45,4.80
2018,02,17,00,46,1.60
2018,02,17,00,47,3.20
2018,02,17,00,48,3.20
2018,02,17,00,49,4.80
2018,02,17,00,50,8.10
2018,02,17,00,51,8.10
2018,02,17,00,52,8.10
2018,02,17,00,53,3.20
2018,02,17,00,54,4.80
2018,02,17,00,55,3.20
2018,02,17,00,56,3.20
2018,02,17,00,57,6.40
2018,02,17,00,58,4.80
2018,02,17,00,59,8.10
2018,02,17,01,00,4.80
2018,02,17,01,01,6.40
2018,02,17,01,02,4.80
2018,02,17,01,03,3.20
2018,02,17,01,04,3.20
2018,02,17,01,05,4.80
2018,02,17,01,06,3.20
2018,02,17,01,07,3.20
2018,02,17,01,08,4.80
2018,02,17,01,09,4.80
2018,02,17,01,10,8.10
2018,02,17,01,11,4.80
2018,02,17,01,13,1.60
2018,02,17,01,14,8.10
2018,02,17,01,15,6.40
2018,02,17,01,16,8.10
2018,02,17,01,17,8.10
2018,02,17,01,18,4.80
2018,02,17,01,19,4.80
2018,02,17,01,20,9.60
2018,02,17,01,21,3.20
2018,02,17,01,22,3.20
2018,02,17,01,23,6.40
2018,02,17,01,24,4.80
2018,02,17,01,25,6.40
2018,02,17,01,26,4.80
2018,02,17,01,27,6.40
2018,02,17,01,28,4.80
2018,02,17,01,29,6.40
2018,02,17,01,30,8.10
2018,02,17,01,31,6.40
2018,02,17,01,32,4.80
2018,02,17,01,33,4.80
2018,02,17,01,34,4.80
2018,02,17,01,35,4.80
2018,02,17,01,36,4.80
2018,02,17,01,37,3.20
2018,02,17,01,38,3.20
2018,02,17,01,39,3.20
2018,02,17,01,41,3.20
2018,02,17,01,44,3.20
2018,02,17,01,45,4.80
2018,02,17,01,46,6.40
2018,02,17,01,47,3.20
2018,02,17,01,48,3.20
2018,02,17,01,49,4.80
2018,02,17,01,50,4.80
2018,02,17,01,51,1.60
2018,02,17,01,56,3.20
2018,02,17,01,57,4.80
2018,02,17,01,58,3.20
2018,02,17,01,59,1.60
2018,02,17,02,00,3.20
2018,02,17,02,01,4.80
2018,02,17,02,02,4.80
2018,02,17,02,03,3.20
2018,02,17,02,04,1.60
2018,02,17,02,08,3.20
2018,02,17,02,09,3.20
2018,02,17,02,13,3.20
2018,02,17,02,14,1.60
2018,02,17,02,18,1.60
2018,02,17,02,19,1.60
2018,02,17,02,20,3.20
2018,02,17,02,25,1.60
2018,02,17,02,26,3.20
2018,02,17,02,27,3.20
2018,02,17,02,28,6.40
2018,02,17,02,29,3.20
2018,02,17,02,30,4.80
2018,02,17,02,31,6.40
2018,02,17,02,32,1.60
2018,02,17,02,35,3.20
2018,02,17,02,36,3.20
2018,02,17,02,40,3.20
2018,02,17,02,41,1.60
2018,02,17,02,42,1.60
2018,02,17,02,53,4.80
2018,02,17,02,54,4.80
2018,02,17,02,55,3.20
2018,02,17,02,58,6.40
2018,02,17,02,59,8.10
2018,02,17,03,00,1.60
2018,02,17,03,01,1.60
2018,02,17,03,02,4.80
2018,02,17,03,03,3.20
2018,02,17,03,07,3.20
2018,02,17,03,08,1.60
2018,02,17,03,10,1.60
2018,02,17,03,11,3.20
2018,02,17,03,12,1.60
2018,02,17,03,29,3.20
2018,02,17,03,30,1.60
2018,02,17,03,32,3.20
2018,02,17,03,33,3.20
2018,02,17,03,34,4.80
2018,02,17,03,35,4.80
2018,02,17,03,36,4.80
2018,02,17,03,38,4.80
2018,02,17,03,39,3.20
2018,02,17,03,40,4.80
2018,02,17,03,41,8.10
2018,02,17,03,42,4.80
2018,02,17,03,43,4.80
2018,02,17,03,44,3.20
2018,02,17,03,45,3.20
2018,02,17,03,46,4.80
2018,02,17,03,47,4.80
2018,02,17,03,48,4.80
2018,02,17,03,49,4.80
2018,02,17,03,50,6.40
2018,02,17,03,51,6.40
2018,02,17,03,52,4.80
2018,02,17,03,53,3.20
2018,02,17,03,59,1.60
2018,02,17,04,00,3.20
2018,02,17,04,01,3.20
2018,02,17,04,02,3.20
2018,02,17,04,03,3.20
2018,02,17,04,04,4.80
2018,02,17,04,05,4.80
2018,02,17,04,06,4.80
2018,02,17,04,07,4.80
2018,02,17,04,08,6.40
2018,02,17,04,09,4.80
2018,02,17,04,10,4.80
2018,02,17,04,11,4.80
2018,02,17,04,12,4.80
2018,02,17,04,13,4.80
2018,02,17,04,14,4.80
2018,02,17,04,15,4.80
2018,02,17,04,16,4.80
2018,02,17,04,17,3.20
2018,02,17,04,18,3.20
2018,02,17,04,19,3.20
2018,02,17,04,20,3.20
2018,02,17,04,21,4.80
2018,02,17,04,22,1.60
2018,02,17,04,29,3.20
2018,02,17,04,30,1.60
2018,02,17,04,31,4.80
2018,02,17,04,32,3.20
2018,02,17,04,33,4.80
2018,02,17,04,34,3.20
2018,02,17,04,35,8.10
2018,02,17,04,36,3.20
2018,02,17,04,40,8.10
2018,02,17,04,41,3.20
2018,02,17,04,42,3.20
2018,02,17,04,43,3.20
2018,02,17,04,46,1.60
2018,02,17,04,47,1.60
2018,02,17,04,48,3.20
2018,02,17,04,49,3.20
2018,02,17,04,50,8.10
2018,02,17,04,51,8.10
2018,02,17,04,52,4.80
2018,02,17,04,53,3.20
2018,02,17,04,54,4.80
2018,02,17,04,55,6.40
2018,02,17,04,56,6.40
2018,02,17,04,57,4.80
2018,02,17,04,58,6.40
2018,02,17,04,59,3.20
2018,02,17,05,00,1.60
2018,02,17,05,01,3.20
2018,02,17,05,02,1.60
2018,02,17,05,04,4.80
2018,02,17,05,05,3.20
2018,02,17,05,07,3.20
2018,02,17,05,08,3.20
2018,02,17,05,09,1.60
2018,02,17,05,10,3.20
2018,02,17,05,11,1.60
2018,02,17,05,13,1.60
2018,02,17,05,14,3.20
2018,02,17,05,15,4.80
2018,02,17,05,16,1.60
2018,02,17,05,17,1.60
2018,02,17,05,18,3.20
2018,02,17,05,19,3.20
2018,02,17,05,22,3.20
2018,02,17,05,23,3.20
2018,02,17,05,24,3.20
2018,02,17,05,25,4.80
2018,02,17,05,27,3.20
2018,02,17,05,28,1.60
2018,02,17,05,29,3.20
2018,02,17,05,30,1.60
2018,02,17,05,31,3.20
2018,02,17,05,32,3.20
2018,02,17,05,33,3.20
2018,02,17,05,34,3.20
2018,02,17,05,35,3.20
2018,02,17,05,36,3.20
2018,02,17,05,37,3.20
2018,02,17,05,38,3.20
2018,02,17,05,39,3.20
2018,02,17,05,41,3.20
2018,02,17,05,42,3.20
2018,02,17,05,43,4.80
2018,02,17,05,44,1.60
2018,02,17,05,45,1.60
2018,02,17,05,46,3.20
2018,02,17,05,49,3.20
2018,02,17,05,51,3.20
2018,02,17,05,52,3.20
2018,02,17,05,53,3.20
2018,02,17,05,54,4.80
2018,02,17,05,55,3.20
2018,02,17,05,56,3.20
2018,02,17,05,57,3.20
2018,02,17,05,58,3.20
2018,02,17,05,59,4.80
2018,02,17,06,00,3.20
2018,02,17,06,01,4.80
2018,02,17,06,02,3.20
2018,02,17,06,03,4.80
2018,02,17,06,04,3.20
2018,02,17,06,05,4.80
2018,02,17,06,06,4.80
2018,02,17,06,07,1.60
2018,02,17,06,08,3.20
2018,02,17,06,09,4.80
2018,02,17,06,10,3.20
2018,02,17,06,11,3.20
2018,02,17,06,12,4.80
2018,02,17,06,13,3.20
2018,02,17,06,14,4.80
2018,02,17,06,15,3.20
2018,02,17,06,16,3.20
2018,02,17,06,17,3.20
2018,02,17,06,18,3.20
2018,02,17,06,19,1.60
2018,02,17,06,20,1.60
2018,02,17,06,22,3.20
2018,02,17,06,23,1.60
2018,02,17,06,26,1.60
2018,02,17,06,27,4.80
2018,02,17,06,28,3.20
2018,02,17,06,29,4.80
2018,02,17,06,30,3.20
2018,02,17,06,31,3.20
2018,02,17,06,32,4.80
2018,02,17,06,33,4.80
2018,02,17,06,34,4.80
2018,02,17,06,35,3.20
2018,02,17,06,36,3.20
2018,02,17,06,37,4.80
2018,02,17,06,38,3.20
2018,02,17,06,39,1.60
2018,02,17,06,40,3.20
2018,02,17,06,41,3.20
2018,02,17,06,42,6.40
2018,02,17,06,43,4.80
2018,02,17,06,44,4.80
2018,02,17,06,45,4.80
2018,02,17,06,46,4.80
2018,02,17,06,47,4.80
2018,02,17,06,48,4.80
2018,02,17,06,49,4.80
2018,02,17,06,50,3.20
2018,02,17,06,51,3.20
2018,02,17,06,52,3.20
2018,02,17,06,53,4.80
2018,02,17,06,54,3.20
2018,02,17,06,55,3.20
2018,02,17,06,56,3.20
2018,02,17,06,57,1.60
2018,02,17,06,58,3.20
2018,02,17,06,59,3.20
2018,02,17,07,01,3.20
2018,02,17,07,02,3.20
2018,02,17,07,03,4.80
2018,02,17,07,04,4.80
2018,02,17,07,05,3.20
2018,02,17,07,06,4.80
2018,02,17,07,07,6.40
2018,02,17,07,08,4.80
2018,02,17,07,09,4.80
2018,02,17,07,10,3.20
2018,02,17,07,11,4.80
2018,02,17,07,12,8.10
2018,02,17,07,13,8.10
2018,02,17,07,14,6.40
2018,02,17,07,15,4.80
2018,02,17,07,16,3.20
2018,02,17,07,17,3.20
2018,02,17,07,18,4.80
2018,02,17,07,19,6.40
2018,02,17,07,20,6.40
2018,02,17,07,21,4.80
2018,02,17,07,22,6.40
2018,02,17,07,23,8.10
2018,02,17,07,24,8.10
2018,02,17,07,25,6.40
2018,02,17,07,26,6.40
2018,02,17,07,27,6.40
2018,02,17,07,28,6.40
2018,02,17,07,29,4.80
2018,02,17,07,30,6.40
2018,02,17,07,31,4.80
2018,02,17,07,32,4.80
2018,02,17,07,33,8.10
2018,02,17,07,34,4.80
2018,02,17,07,35,6.40
2018,02,17,07,36,6.40
2018,02,17,07,37,4.80
2018,02,17,07,38,6.40
2018,02,17,07,39,4.80
2018,02,17,07,40,6.40
2018,02,17,07,41,4.80
2018,02,17,07,42,6.40
2018,02,17,07,43,3.20
2018,02,17,07,44,3.20
2018,02,17,07,45,3.20
2018,02,17,07,46,3.20
2018,02,17,07,47,4.80
2018,02,17,07,48,4.80
2018,02,17,07,49,3.20
2018,02,17,07,53,4.80
2018,02,17,07,54,4.80
2018,02,17,07,55,4.80
2018,02,17,07,56,3.20
2018,02,17,07,57,4.80
2018,02,17,07,58,3.20
2018,02,17,08,00,3.20
2018,02,17,08,01,3.20
2018,02,17,08,05,4.80
2018,02,17,08,06,4.80
2018,02,17,08,07,4.80
2018,02,17,08,08,1.60
2018,02,17,08,14,3.20
2018,02,17,08,15,3.20
2018,02,17,08,16,3.20
2018,02,17,08,17,3.20
2018,02,17,08,40,1.60
2018,02,17,08,44,6.40
2018,02,17,08,45,8.10
2018,02,17,08,46,4.80
2018,02,17,08,47,3.20
2018,02,17,08,48,4.80
2018,02,17,08,49,3.20
2018,02,17,08,50,4.80
2018,02,17,08,51,4.80
2018,02,17,08,52,3.20
2018,02,17,08,53,3.20
2018,02,17,08,54,1.60
2018,02,17,08,55,3.20
2018,02,17,08,59,3.20
2018,02,17,09,00,4.80
2018,02,17,09,01,3.20
2018,02,17,09,02,4.80
2018,02,17,09,03,6.40
2018,02,17,09,04,4.80
2018,02,17,09,05,9.60
2018,02,17,09,06,8.10
2018,02,17,09,07,4.80
2018,02,17,09,08,6.40
2018,02,17,09,09,3.20
2018,02,17,09,10,4.80
2018,02,17,09,11,1.60
2018,02,17,09,12,4.80
2018,02,17,09,13,4.80
2018,02,17,09,15,1.60
2018,02,17,09,17,4.80
2018,02,17,09,18,3.20
2018,02,17,09,19,4.80
2018,02,17,09,20,4.80
2018,02,17,09,21,3.20
2018,02,17,09,22,4.80
2018,02,17,09,23,4.80
2018,02,17,09,24,3.20
2018,02,17,09,25,6.40
2018,02,17,09,26,6.40
2018,02,17,09,27,4.80
2018,02,17,09,28,4.80
2018,02,17,09,29,3.20
2018,02,17,09,30,3.20
2018,02,17,09,31,4.80
2018,02,17,09,32,4.80
2018,02,17,09,33,6.40
2018,02,17,09,34,9.60
2018,02,17,09,35,12.90
2018,02,17,09,36,6.40
2018,02,17,09,37,8.10
2018,02,17,09,38,11.30
2018,02,17,09,39,14.50
2018,02,17,09,40,4.80
2018,02,17,09,41,6.40
2018,02,17,09,42,8.10
2018,02,17,09,43,16.10
2018,02,17,09,44,9.60
2018,02,17,09,45,8.10
2018,02,17,09,46,6.40
2018,02,17,09,47,8.10
2018,02,17,09,48,11.30
2018,02,17,09,49,9.60
2018,02,17,09,50,8.10
2018,02,17,09,51,9.60
2018,02,17,09,52,6.40
2018,02,17,09,53,6.40
2018,02,17,09,54,6.40
2018,02,17,09,55,6.40
2018,02,17,09,56,6.40
2018,02,17,09,57,4.80
2018,02,17,09,58,9.60
2018,02,17,09,59,6.40
2018,02,17,10,00,9.60
2018,02,17,10,01,6.40
2018,02,17,10,02,6.40
2018,02,17,10,03,4.80
2018,02,17,10,04,4.80
2018,02,17,10,05,9.60
2018,02,17,10,06,4.80
2018,02,17,10,07,9.60
2018,02,17,10,08,8.10
2018,02,17,10,09,8.10
2018,02,17,10,10,11.30
2018,02,17,10,11,11.30
2018,02,17,10,12,9.60
2018,02,17,10,13,6.40
2018,02,17,10,14,4.80
2018,02,17,10,15,4.80
2018,02,17,10,16,4.80
2018,02,17,10,17,4.80
2018,02,17,10,18,6.40
2018,02,17,10,19,9.60
2018,02,17,10,20,11.30
2018,02,17,10,21,8.10
2018,02,17,10,22,9.60
2018,02,17,10,23,9.60
2018,02,17,10,24,8.10
2018,02,17,10,25,8.10
2018,02,17,10,26,1.60
2018,02,17,10,27,8.10
2018,02,17,10,28,6.40
2018,02,17,10,29,6.40
2018,02,17,10,30,3.20
2018,02,17,10,31,4.80
2018,02,17,10,32,6.40
2018,02,17,10,33,8.10
2018,02,17,10,34,8.10
2018,02,17,10,35,3.20
2018,02,17,10,36,4.80
2018,02,17,10,37,4.80
2018,02,17,10,38,6.40
2018,02,17,10,39,6.40
2018,02,17,10,40,3.20
2018,02,17,10,41,4.80
2018,02,17,10,44,6.40
2018,02,17,10,45,8.10
2018,02,17,10,46,4.80
2018,02,17,10,47,4.80
2018,02,17,10,48,3.20
2018,02,17,10,49,14.50
2018,02,17,10,50,14.50
2018,02,17,10,51,16.10
2018,02,17,10,52,12.90
2018,02,17,10,53,3.20
2018,02,17,10,54,19.30
2018,02,17,10,55,9.60
2018,02,17,10,56,6.40
2018,02,17,10,57,8.10
2018,02,17,10,58,6.40
2018,02,17,10,59,9.60
2018,02,17,11,00,22.50
2018,02,17,11,01,6.40
2018,02,17,11,02,4.80
2018,02,17,11,03,6.40
2018,02,17,11,04,8.10
2018,02,17,11,05,9.60
2018,02,17,11,06,3.20
2018,02,17,11,07,9.60
2018,02,17,11,08,9.60
2018,02,17,11,09,16.10
2018,02,17,11,10,9.60
2018,02,17,11,11,6.40
2018,02,17,11,12,3.20
2018,02,17,11,13,3.20
2018,02,17,11,14,4.80
2018,02,17,11,15,4.80
2018,02,17,11,16,6.40
2018,02,17,11,17,6.40
2018,02,17,11,18,6.40
2018,02,17,11,19,3.20
2018,02,17,11,20,1.60
2018,02,17,11,21,8.10
2018,02,17,11,22,3.20
2018,02,17,11,23,16.10
2018,02,17,11,24,9.60
2018,02,17,11,25,6.40
2018,02,17,11,26,4.80
2018,02,17,11,27,14.50
2018,02,17,11,28,6.40
2018,02,17,11,29,6.40
2018,02,17,11,30,4.80
2018,02,17,11,31,22.50
2018,02,17,11,32,35.40
2018,02,17,11,33,19.30
2018,02,17,11,34,22.50
2018,02,17,11,35,12.90
2018,02,17,11,36,14.50
2018,02,17,11,37,19.30
2018,02,17,11,38,19.30
2018,02,17,11,39,9.60
2018,02,17,11,40,9.60
2018,02,17,11,41,9.60
2018,02,17,11,42,6.40
2018,02,17,11,43,4.80
2018,02,17,11,44,17.70
2018,02,17,11,45,19.30
2018,02,17,11,46,14.50
2018,02,17,11,47,11.30
2018,02,17,11,48,9.60
2018,02,17,11,49,6.40
2018,02,17,11,50,19.30
2018,02,17,11,51,25.70
2018,02,17,11,52,25.70
2018,02,17,11,53,19.30
2018,02,17,11,54,9.60
2018,02,17,11,55,29.00
2018,02,17,11,56,16.10
2018,02,17,11,57,8.10
2018,02,17,11,58,17.70
2018,02,17,11,59,9.60
2018,02,17,12,00,16.10
2018,02,17,12,01,19.30
2018,02,17,12,02,14.50
2018,02,17,12,03,4.80
2018,02,17,12,04,16.10
2018,02,17,12,05,6.40
2018,02,17,12,06,9.60
2018,02,17,12,07,6.40
2018,02,17,12,08,6.40
2018,02,17,12,09,8.10
2018,02,17,12,10,4.80
2018,02,17,12,11,8.10
2018,02,17,12,12,17.70
2018,02,17,12,13,6.40
2018,02,17,12,14,3.20
2018,02,17,12,15,3.20
2018,02,17,12,16,6.40
2018,02,17,12,17,6.40
2018,02,17,12,18,3.20
2018,02,17,12,19,6.40
2018,02,17,12,20,19.30
2018,02,17,12,21,27.40
2018,02,17,12,22,9.60
2018,02,17,12,23,6.40
2018,02,17,12,24,4.80
2018,02,17,12,25,4.80
2018,02,17,12,26,4.80
2018,02,17,12,27,3.20
2018,02,17,12,28,6.40
2018,02,17,12,29,8.10
2018,02,17,12,30,12.90
2018,02,17,12,31,11.30
2018,02,17,12,32,6.40
2018,02,17,12,33,1.60
2018,02,17,12,34,4.80
2018,02,17,12,35,6.40
2018,02,17,12,36,6.40
2018,02,17,12,37,8.10
2018,02,17,12,38,6.40
2018,02,17,12,39,14.50
2018,02,17,12,40,6.40
2018,02,17,12,41,16.10
2018,02,17,12,42,6.40
2018,02,17,12,43,3.20
2018,02,17,12,44,3.20
2018,02,17,12,45,3.20
2018,02,17,12,46,4.80
2018,02,17,12,47,4.80
2018,02,17,12,48,6.40
2018,02,17,12,49,6.40
2018,02,17,12,50,4.80
2018,02,17,12,51,8.10
2018,02,17,12,52,20.90
2018,02,17,12,53,11.30
2018,02,17,12,54,6.40
2018,02,17,12,55,6.40
2018,02,17,12,56,11.30
2018,02,17,12,57,4.80
2018,02,17,12,58,4.80
2018,02,17,12,59,4.80
2018,02,17,13,00,3.20
2018,02,17,13,01,9.60
2018,02,17,13,02,4.80
2018,02,17,13,03,8.10
2018,02,17,13,04,25.70
2018,02,17,13,05,16.10
2018,02,17,13,06,19.30
2018,02,17,13,07,9.60
2018,02,17,13,08,8.10
2018,02,17,13,09,16.10
2018,02,17,13,10,16.10
2018,02,17,13,11,19.30
2018,02,17,13,12,40.20
2018,02,17,13,13,38.60
2018,02,17,13,14,25.70
2018,02,17,13,15,9.60
2018,02,17,13,16,6.40
2018,02,17,13,17,3.20
2018,02,17,13,18,11.30
2018,02,17,13,19,9.60
2018,02,17,13,20,6.40
2018,02,17,13,21,16.10
2018,02,17,13,22,17.70
2018,02,17,13,23,4.80
2018,02,17,13,24,3.20
2018,02,17,13,25,4.80
2018,02,17,13,26,3.20
2018,02,17,13,27,4.80
2018,02,17,13,28,6.40
2018,02,17,13,29,3.20
2018,02,17,13,31,3.20
2018,02,17,13,32,1.60
2018,02,17,13,33,11.30
2018,02,17,13,34,11.30
2018,02,17,13,35,4.80
2018,02,17,13,36,16.10
2018,02,17,13,37,4.80
2018,02,17,13,38,14.50
2018,02,17,13,39,8.10
2018,02,17,13,40,8.10
2018,02,17,13,41,22.50
2018,02,17,13,42,19.30
2018,02,17,13,43,4.80
2018,02,17,13,44,6.40
2018,02,17,13,45,16.10
2018,02,17,13,46,4.80
2018,02,17,13,47,3.20
2018,02,17,13,48,8.10
2018,02,17,13,49,6.40
2018,02,17,13,50,3.20
2018,02,17,13,51,19.30
2018,02,17,13,52,12.90
2018,02,17,13,53,9.60
2018,02,17,13,54,9.60
2018,02,17,13,55,8.10
2018,02,17,13,56,9.60
2018,02,17,13,57,14.50
2018,02,17,13,58,25.70
2018,02,17,13,59,22.50
2018,02,17,14,00,11.30
2018,02,17,14,01,19.30
2018,02,17,14,02,16.10
2018,02,17,14,03,20.90
2018,02,17,14,04,17.70
2018,02,17,14,05,20.90
2018,02,17,14,06,22.50
2018,02,17,14,07,16.10
2018,02,17,14,08,19.30
2018,02,17,14,09,19.30
2018,02,17,14,10,25.70
2018,02,17,14,11,16.10
2018,02,17,14,12,12.90
2018,02,17,14,13,9.60
2018,02,17,14,14,11.30
2018,02,17,14,15,14.50
2018,02,17,14,16,6.40
2018,02,17,14,17,8.10
2018,02,17,14,18,22.50
2018,02,17,14,19,20.90
2018,02,17,14,20,22.50
2018,02,17,14,21,14.50
2018,02,17,14,22,6.40
2018,02,17,14,23,6.40
2018,02,17,14,24,19.30
2018,02,17,14,25,19.30
2018,02,17,14,26,19.30
2018,02,17,14,27,22.50
2018,02,17,14,28,16.10
2018,02,17,14,29,14.50
2018,02,17,14,30,11.30
2018,02,17,14,31,35.40
2018,02,17,14,32,19.30
2018,02,17,14,33,9.60
2018,02,17,14,34,8.10
2018,02,17,14,35,6.40
2018,02,17,14,36,4.80
2018,02,17,14,37,6.40
2018,02,17,14,38,6.40
2018,02,17,14,39,9.60
2018,02,17,14,40,8.10
2018,02,17,14,41,8.10
2018,02,17,14,42,8.10
2018,02,17,14,43,4.80
2018,02,17,14,44,4.80
2018,02,17,14,45,4.80
2018,02,17,14,46,4.80
2018,02,17,14,47,4.80
2018,02,17,14,48,3.20
2018,02,17,14,49,9.60
2018,02,17,14,50,4.80
2018,02,17,14,51,6.40
2018,02,17,14,52,8.10
2018,02,17,14,53,4.80
2018,02,17,14,54,12.90
2018,02,17,14,55,9.60
2018,02,17,14,56,6.40
2018,02,17,14,57,6.40
2018,02,17,14,58,9.60
2018,02,17,14,59,6.40
2018,02,17,15,00,1.60
2018,02,17,15,01,6.40
2018,02,17,15,02,6.40
2018,02,17,15,03,4.80
2018,02,17,15,04,9.60
2018,02,17,15,05,8.10
2018,02,17,15,06,4.80
2018,02,17,15,07,8.10
2018,02,17,15,08,3.20
2018,02,17,15,09,6.40
2018,02,17,15,10,6.40
2018,02,17,15,11,19.30
2018,02,17,15,12,16.10
2018,02,17,15,13,8.10
2018,02,17,15,14,4.80
2018,02,17,15,15,8.10
2018,02,17,15,16,9.60
2018,02,17,15,17,6.40
2018,02,17,15,18,4.80
2018,02,17,15,19,4.80
2018,02,17,15,20,8.10
2018,02,17,15,21,4.80
2018,02,17,15,22,6.40
2018,02,17,15,23,6.40
2018,02,17,15,24,6.40
2018,02,17,15,25,6.40
2018,02,17,15,26,9.60
2018,02,17,15,27,6.40
2018,02,17,15,28,9.60
2018,02,17,15,29,14.50
2018,02,17,15,30,6.40
2018,02,17,15,31,9.60
2018,02,17,15,32,9.60
2018,02,17,15,33,8.10
2018,02,17,15,34,8.10
2018,02,17,15,35,3.20
2018,02,17,15,36,3.20
2018,02,17,15,37,6.40
2018,02,17,15,38,6.40
2018,02,17,15,39,6.40
2018,02,17,15,40,3.20
2018,02,17,15,41,8.10
2018,02,17,15,42,8.10
2018,02,17,15,43,11.30
2018,02,17,15,44,14.50
2018,02,17,15,45,3.20
2018,02,17,15,46,4.80
2018,02,17,15,47,3.20
2018,02,17,15,48,4.80
2018,02,17,15,49,4.80
2018,02,17,15,50,1.60
2018,02,17,15,51,6.40
2018,02,17,15,52,8.10
2018,02,17,15,53,8.10
2018,02,17,15,54,11.30
2018,02,17,15,55,3.20
2018,02,17,15,56,3.20
2018,02,17,15,57,4.80
2018,02,17,15,58,9.60
2018,02,17,15,59,3.20
2018,02,17,16,00,3.20
2018,02,17,16,01,3.20
2018,02,17,16,02,3.20
2018,02,17,16,03,3.20
2018,02,17,16,04,3.20
2018,02,17,16,05,6.40
2018,02,17,16,06,1.60
2018,02,17,16,07,1.60
2018,02,17,16,08,1.60
2018,02,17,16,10,3.20
2018,02,17,16,11,1.60
2018,02,17,16,12,1.60
2018,02,17,16,13,3.20
2018,02,17,16,14,1.60
2018,02,17,16,15,3.20
2018,02,17,16,25,3.20
2018,02,17,16,26,1.60
2018,02,17,16,28,1.60
2018,02,17,16,32,3.20
2018,02,17,16,33,4.80
2018,02,17,16,34,3.20
2018,02,17,16,35,6.40
2018,02,17,16,36,6.40
2018,02,17,16,37,3.20
2018,02,17,16,38,4.80
2018,02,17,16,39,6.40
2018,02,17,16,40,1.60
2018,02,17,16,43,3.20
2018,02,17,16,44,3.20
2018,02,17,16,45,3.20
2018,02,17,16,46,3.20
2018,02,17,16,47,3.20
2018,02,17,16,48,3.20
2018,02,17,16,49,3.20
2018,02,17,16,50,3.20
2018,02,17,16,51,3.20
2018,02,17,16,52,1.60
2018,02,17,16,58,1.60
2018,02,17,16,59,3.20
2018,02,17,17,00,1.60
2018,02,17,17,03,3.20
2018,02,17,17,04,1.60
2018,02,17,17,05,1.60
2018,02,17,17,13,3.20
2018,02,17,17,14,3.20
2018,02,17,17,15,3.20
2018,02,17,17,16,3.20
2018,02,17,17,18,4.80
2018,02,17,17,19,4.80
2018,02,17,20,14,1.60
2018,02,17,20,15,3.20
2018,02,17,20,16,3.20
2018,02,17,20,17,3.20
2018,02,17,20,18,1.60
2018,02,17,20,19,3.20
2018,02,17,20,20,1.60
2018,02,17,20,36,1.60
2018,02,17,20,37,3.20
2018,02,17,20,38,3.20
2018,02,17,20,39,3.20
2018,02,17,20,40,3.20
2018,02,17,20,41,3.20
2018,02,17,20,42,3.20
2018,02,17,20,43,3.20
2018,02,17,20,44,1.60
2018,02,17,20,45,3.20
2018,02,17,20,46,1.60
2018,02,17,20,47,3.20
2018,02,17,20,48,4.80
2018,02,17,20,49,4.80
2018,02,17,20,50,3.20
2018,02,17,20,51,1.60
2018,02,17,20,52,4.80
2018,02,17,20,53,4.80
2018,02,17,20,54,4.80
2018,02,17,20,55,6.40
2018,02,17,20,56,11.30
2018,02,17,20,57,11.30
2018,02,17,20,58,14.50
2018,02,17,20,59,8.10
2018,02,17,21,00,4.80
2018,02,17,21,01,1.60
2018,02,17,21,02,6.40
2018,02,17,21,03,3.20
2018,02,17,21,04,8.10
2018,02,17,21,05,9.60
2018,02,17,21,06,6.40
2018,02,17,21,07,9.60
2018,02,17,21,08,8.10
2018,02,17,21,09,19.30
2018,02,17,21,10,8.10
2018,02,17,21,11,16.10
2018,02,17,21,12,14.50
2018,02,17,21,13,8.10
2018,02,17,21,14,4.80
2018,02,17,21,15,6.40
2018,02,17,21,16,3.20
2018,02,17,21,17,4.80
2018,02,17,21,18,4.80
2018,02,17,21,19,3.20
2018,02,17,21,20,3.20
2018,02,17,21,21,3.20
2018,02,17,21,22,3.20
2018,02,17,21,23,8.10
2018,02,17,21,24,9.60
2018,02,17,21,25,9.60
2018,02,17,21,26,3.20
2018,02,17,21,27,8.10
2018,02,17,21,28,4.80
2018,02,17,21,29,16.10
2018,02,17,21,30,4.80
2018,02,17,21,31,4.80
2018,02,17,21,32,14.50
2018,02,17,21,33,19.30
2018,02,17,21,34,6.40
2018,02,17,21,35,6.40
2018,02,17,21,36,4.80
2018,02,17,21,37,4.80
2018,02,17,21,38,3.20
2018,02,17,21,39,3.20
2018,02,17,21,40,4.80
2018,02,17,21,41,8.10
2018,02,17,21,42,20.90
2018,02,17,21,43,17.70
2018,02,17,21,44,9.60
2018,02,17,21,45,8.10
2018,02,17,21,46,1.60
2018,02,17,21,47,3.20
2018,02,17,21,48,14.50
2018,02,17,21,49,17.70
2018,02,17,21,50,8.10
2018,02,17,21,51,14.50
2018,02,17,21,52,14.50
2018,02,17,21,53,6.40
2018,02,17,21,54,6.40
2018,02,17,21,55,6.40
2018,02,17,21,56,6.40
2018,02,17,21,57,4.80
2018,02,17,21,58,3.20
2018,02,17,21,59,3.20
2018,02,17,22,00,4.80
2018,02,17,22,01,6.40
2018,02,17,22,02,4.80
2018,02,17,22,03,3.20
2018,02,17,22,04,1.60
2018,02,17,22,05,3.20
2018,02,17,22,06,4.80
2018,02,17,22,07,1.60
2018,02,17,22,08,3.20
2018,02,17,22,09,3.20
2018,02,17,22,10,8.10
2018,02,17,22,11,4.80
2018,02,17,22,12,4.80
2018,02,17,22,13,4.80
2018,02,17,22,14,4.80
2018,02,17,22,15,1.60
2018,02,17,22,18,1.60
2018,02,17,22,19,3.20
2018,02,17,22,20,3.20
2018,02,17,22,21,3.20
2018,02,17,22,22,3.20
2018,02,17,22,23,4.80
2018,02,17,22,24,4.80
2018,02,17,22,25,6.40
2018,02,17,22,26,6.40
2018,02,17,22,27,4.80
2018,02,17,22,28,3.20
2018,02,17,22,29,3.20
2018,02,17,22,31,3.20
2018,02,17,22,32,4.80
2018,02,17,22,33,3.20
2018,02,17,22,35,3.20
2018,02,17,22,36,3.20
2018,02,17,22,37,1.60
2018,02,17,22,38,1.60
2018,02,17,22,39,3.20
2018,02,17,22,40,6.40
2018,02,17,22,41,6.40
2018,02,17,22,42,4.80
2018,02,17,22,43,6.40
2018,02,17,22,44,16.10
2018,02,17,22,45,14.50
2018,02,17,22,46,6.40
2018,02,17,22,47,11.30
2018,02,17,22,48,6.40
2018,02,17,22,49,3.20
2018,02,17,22,50,6.40
2018,02,17,22,51,4.80
2018,02,17,22,52,3.20
2018,02,17,22,53,3.20
2018,02,17,22,54,4.80
2018,02,17,22,55,6.40
2018,02,17,22,56,9.60
2018,02,17,22,57,6.40
2018,02,17,22,58,11.30
2018,02,17,22,59,11.30
2018,02,17,23,00,8.10
2018,02,17,23,01,4.80
2018,02,17,23,02,4.80
2018,02,17,23,03,4.80
2018,02,17,23,04,6.40
2018,02,17,23,05,9.60
2018,02,17,23,06,8.10
2018,02,17,23,07,9.60
2018,02,17,23,08,4.80
2018,02,17,23,09,4.80
2018,02,17,23,10,4.80
2018,02,17,23,11,1.60
2018,02,17,23,12,3.20
2018,02,17,23,13,11.30
2018,02,17,23,14,16.10
2018,02,17,23,15,9.60
2018,02,17,23,16,8.10
2018,02,17,23,17,20.90
2018,02,17,23,18,4.80
2018,02,17,23,19,3.20
2018,02,17,23,20,4.80
2018,02,17,23,21,1.60
2018,02,17,23,22,8.10
2018,02,17,23,23,6.40
2018,02,17,23,24,4.80
2018,02,17,23,25,4.80
2018,02,17,23,26,9.60
2018,02,17,23,27,9.60
2018,02,17,23,28,6.40
2018,02,17,23,29,8.10
2018,02,17,23,30,9.60
2018,02,17,23,31,6.40
2018,02,17,23,32,4.80
2018,02,17,23,33,8.10
2018,02,17,23,34,6.40
2018,02,17,23,35,3.20
2018,02,17,23,36,6.40
2018,02,17,23,37,6.40
2018,02,17,23,38,9.60
2018,02,17,23,39,3.20
2018,02,17,23,40,4.80
2018,02,17,23,41,6.40
2018,02,17,23,42,6.40
2018,02,17,23,43,9.60
2018,02,17,23,44,8.10
2018,02,17,23,45,8.10
2018,02,17,23,46,4.80
2018,02,17,23,47,1.60
2018,02,17,23,48,6.40
2018,02,17,23,49,6.40
2018,02,17,23,50,4.80
2018,02,17,23,51,3.20
2018,02,17,23,52,1.60
2018,02,17,23,53,4.80
2018,02,17,23,54,3.20
2018,02,17,23,55,3.20
2018,02,17,23,56,8.10
2018,02,17,23,57,6.40
2018,02,17,23,58,6.40
2018,02,17,23,59,3.20
